Location: Banios
(43.0451°N, 0.2335°E)
Time: 13:50:53
(UTC+00:00)

Cosmos 1606 Rocket - Pass Details

Date: 25 January 2021
Orbit: 604 x 631 km, 82.5° (Epoch: 26 February)

Event Time Altitude Azimuth Distance (km) Brightness Sun altitude
Rises 06:30:14 0° 199° (SSW) 2,843 6.9 -9.5°
Reaches altitude 10° 06:32:29 10° 204° (SSW) 1,945 6.0 -9.1°
Maximum altitude 06:36:40 51° 281° (W) 762 3.7 -8.3°
Drops below altitude 10° 06:40:55 10° 358° (N) 1,965 5.9 -7.6°
Sets 06:43:12 0° 4° (N) 2,876 6.8 -7.2°
